Location: Limerick
(52.6650°N, 8.6230°W)
Time: 19:48:18
(UTC+01:00)

ISS - Pass Details

Date: 22 July 2017
Orbit: 400 x 408 km, 51.6° (Epoch: 21 July)

Event Time Altitude Azimuth Distance (km) Brightness Sun altitude
Rises 23:11:43 0° 210° (SSW) 2,301 -0.2 -10.4°
Reaches altitude 10° 23:14:12 10° 191° (S) 1,447 -1.4 -10.6°
Maximum altitude 23:16:31 18° 145° (SE) 1,056 -2.4 -10.8°
Drops below altitude 10° 23:18:50 10° 100° (E) 1,453 -1.4 -11.0°
Sets 23:21:19 0° 81° (E) 2,316 -0.2 -11.2°
